Zurück zum Katalog

COSMOS 445

AktivMilitärLEO
NORAD 5548·PAYLOAD·🇷🇺 Russia

Gestartet Oct 13, 1971 von Plesetsk Cosmodrome

Loading…

Nächste Überflüge (nächste 24 Stunden)

TLE

AktuellSource: Space-Track

Epoche: Sep 14, 2026, 04:32 UTC

1 05548U 71086B   26257.18948981  .00000014  00000-0  17077-3 0  9994
2 05548  74.0294 168.0342 0102575 104.4607  47.5047 12.58230145522418

Verfolge COSMOS 445 in Echtzeit mit AllMySat

Download on the App Store